Regional Weather Roundup
Issued by NWS

Home | Current Version | Previous Version | Text Only | Print | Product List | Glossary Off
Versions: 1 2 3 4 5 6 7 8 9 10 11 12 13 14 15 16 17 18 19 20 21 22 23 24 25 26 27 28 29 30 31 32 33 34 35 36 37 38 39 40 41 42 43 44 45 46 47 48 49 50

000
ASUS43 KBIS 031910
RWRND

NORTH DAKOTA REGIONAL WEATHER ROUNDUP
NATIONAL WEATHER SERVICE BISMARCK ND
200 PM CDT FRI JUL 03 2015

NOTE: "FAIR" INDICATES FEW OR NO CLOUDS BELOW 12,000 FEET WITH NO
SIGNIFICANT WEATHER AND/OR OBSTRUCTIONS TO VISIBILITY.


NDZ001>003-009>011-017-032000-
NORTHWEST NORTH DAKOTA

CITY           SKY/WX    TMP DP  RH WIND       PRES   REMARKS
WILLISTON      SUNNY     84  57  39 S7        29.96F
MINOT          CLOUDY    79  62  56 SW5       29.96F HAZE
MINOT AFB      SUNNY     83  70  65 S2        29.95F HAZE
$$

NDZ018>021-031>035-040>046-032000-
SOUTHWEST NORTH DAKOTA

CITY           SKY/WX    TMP DP  RH WIND       PRES   REMARKS
BISMARCK       PTSUNNY   79  62  56 CALM      29.98F HAZE
DICKINSON      SUNNY     79  58  48 S3        29.98F
GARRISON         N/A     78  64  61 SW7       29.97F
HETTINGER ARPT MOSUNNY   80  58  46 VRB3      30.02F
$$

NDZ004>008-012>016-024-026-027-054-032000-
NORTHEAST NORTH DAKOTA

CITY           SKY/WX    TMP DP  RH WIND       PRES   REMARKS
GRAND FORKS    PTSUNNY   80  64  58 N9        29.92F HAZE
GRND FRKS AFB  MOSUNNY   79  64  59 N7        29.93F HAZE
DEVILS LAKE    MOSUNNY   81  57  44 CALM      29.95S
$$

NDZ022-023-025-028>030-036>039-047>053-032000-
SOUTHEAST NORTH DAKOTA

CITY           SKY/WX    TMP DP  RH WIND       PRES   REMARKS
FARGO          SUNNY     81  63  54 N7        29.92F HAZE
JAMESTOWN      CLOUDY    79  59  50 NW6       29.96S HAZE
$$



USA.gov is the U.S. government's official web portal to all federal, state and local government web resources and services.